Location: Lombard
(41.8800°N, 88.0080°W)
Time: 05:07:02
(UTC-05:00)

Vanguard 2 Rocket - Pass Details

Date: 24 February 2024
Orbit: 555 x 3307 km, 32.9° (Epoch: 12 April)

Event Time Altitude Azimuth Distance (km) Brightness Sun altitude
Rises 14:57:16 0° 243° (WSW) 4,372 11.6 25.3°
Reaches altitude 10° 14:59:47 10° 238° (WSW) 3,688 11.8 25.0°
Maximum altitude 15:09:37 54° 164° (SSE) 2,561 9.7 23.6°
Drops below altitude 10° 15:26:02 10° 94° (E) 5,925 10.7 21.2°
Sets 15:31:19 0° 91° (E) 7,157 11.0 20.4°
